This is the latest recevied weather packets stored in our database for station/object N0QV. If no packets are shown the sender has not sent any weather packets the latest 10 day(s).
| Time | Temp. | Humidity | Pressure | Rain* | Wind** | Luminosity | Snow |
|---|---|---|---|---|---|---|---|
| 1778126224 | 1.67° C | 66% | 1015.1 hPa | 0 mm | - | 0 W/m² | - |
| 1778125919 | 1.67° C | 65% | 1015.4 hPa | 0 mm | - | 0 W/m² | - |
| 1778125616 | 1.67° C | 65% | 1015.3 hPa | 0 mm | - | 0 W/m² | - |
| 1778125314 | 1.67° C | 67% | 1015.1 hPa | 0 mm | - | 0 W/m² | - |
| 1778125012 | 1.67° C | 68% | 1015.1 hPa | 0 mm | - | 0 W/m² | - |
| 1778124709 | 1.67° C | 69% | 1015.3 hPa | 0 mm | - | 0 W/m² | - |
| 1778124407 | 2.22° C | 67% | 1015.3 hPa | 0 mm | - | 0 W/m² | - |
| 1778124102 | 2.78° C | 66% | 1015.4 hPa | 0 mm | - | 0 W/m² | - |
| 1778123800 | 2.78° C | 63% | 1015.2 hPa | 0 mm | - | 0 W/m² | - |
| 1778123496 | 2.78° C | 61% | 1015.1 hPa | 0 mm | - | 0 W/m² | - |
| 1778123193 | 3.33° C | 62% | 1015.5 hPa | 0 mm | - | 0 W/m² | - |
| 1778122891 | 3.33° C | 59% | 1015.4 hPa | 0 mm | - | 0 W/m² | - |
| 1778122588 | 3.33° C | 59% | 1015.5 hPa | 0 mm | - | 0 W/m² | - |
| 1778122284 | 3.33° C | 61% | 1015.3 hPa | 0 mm | - | 0 W/m² | - |
| 1778121982 | 3.33° C | 58% | 1015.6 hPa | 0 mm | - | 0 W/m² | - |
| 1778121679 | 3.33° C | 57% | 1015.4 hPa | 0 mm | - | 0 W/m² | - |
| 1778121375 | 3.89° C | 55% | 1015.3 hPa | 0 mm | - | 0 W/m² | - |
| 1778121073 | 4.44° C | 55% | 1015.3 hPa | 0 mm | - | 0 W/m² | - |
| 1778120769 | 4.44° C | 58% | 1015.4 hPa | 0 mm | - | 0 W/m² | - |
| 1778120464 | 5° C | 57% | 1015.2 hPa | 0 mm | - | 0 W/m² | - |
| 1778120161 | 5° C | 54% | 1015.3 hPa | 0 mm | - | 0 W/m² | - |
| 1778119857 | 5.56° C | 53% | 1015.4 hPa | 0 mm | - | 0 W/m² | - |
| 1778119555 | 5.56° C | 51% | 1015.3 hPa | 0 mm | - | 0 W/m² | - |
| 1778119251 | 6.11° C | 49% | 1015.5 hPa | 0 mm | - | 0 W/m² | - |
| 1778118950 | 6.11° C | 48% | 1015.4 hPa | 0 mm | - | 0 W/m² | - |
* Rain latest hour (hover to see other rain measurements)
** Current wind speed in m/s (hover to see current wind gust speed)